sat.trackr.live / text

‹ back to catalog

SKY MEXICO-1

NORAD 40664 · 2015-026B

PAYLOAD ACTIVE UNKNOWN

§ Identity

Operator
Country
MEX
Launch date
2015-05-27
Launch site
FRGUI
Launch vehicle
Mass (kg)
RCS (m²)
75.69

Purposes: comms

External: N2YO · Heavens-Above · Gunter

§ Orbital elements

Epoch: 2026-05-24T20:31:25.631328Z

Period
1,436.12 min
Inclination
0.0393°
Eccentricity
0.0002053
Mean motion
1.00270108 rev/d
Perigee alt
35,778.4 km
Apogee alt
35,795.7 km
Semi-major
42,165.2 km
B*
0.0000e+0
RAAN
113.1161°
Arg perigee
322.6663°
Mean anomaly
35.7225°
Rev number
4,022

§ Raw data

SKY MEXICO-11 40664U 15026B   26144.85515777 -.00000237  00000+0  00000+0 0  99972 40664   0.0393 113.1161 0002053 322.6663  35.7225  1.00270108 40220

JSON: /api/v1/satellites/40664 · /tle

For live sub-satellite position, see the globe view (requires WebGL).

§ Visibility from observer

Set your observer location to see the next 7 days of passes ≥ 10°. The values pass through the URL so the page stays shareable.

No JS? Fill the form by hand. The geolocation button needs JavaScript.